Stations météo

Publicité
Istres, France (7647): Température de l'air & dewpoint: 21.10.2020 18:00:00 - 27.10.2020 18:00:00 (CET)Istres, France (7647): Température de l'air 5cm: 21.10.2020 18:00:00 - 27.10.2020 18:00:00 (CET)Istres, France (7647): Vitesse du vent & gusts: 21.10.2020 18:00:00 - 27.10.2020 18:00:00 (CET)Istres, France (7647): Direction du vent: 21.10.2020 18:00:00 - 27.10.2020 18:00:00 (CET)Istres, France (7647): reduced air pressure: 21.10.2020 18:00:00 - 27.10.2020 18:00:00 (CET)Istres, France (7647): visibility: 21.10.2020 18:00:00 - 27.10.2020 18:00:00 (CET)Istres, France (7647): Quantités de précipitations: 21.10.2020 18:00:00 - 27.10.2020 18:00:00 (CET)
Date & Time tt [°C] td [°C] tt 5cm [°C] ff [km/h] ff [knt] fx [km/h] fx [knt] dd ppp [hPa] vv [km] rr [mm]
27.10.2020 18:00:00 13,2 6,5 10,7 8 5 26 14 WNW 1014,5 19 0,0
27.10.2020 17:00:00 16,6 6,4 16,3 21 11 32 17 W 1014,0 22 0,0
27.10.2020 16:00:00 17,3 5,6 18,8 23 12 38 21 NW 1013,4 29 0,0
27.10.2020 15:00:00 17,6 5,2 19,9 26 14 40 22 NNW 1013,5 27 0,0
27.10.2020 14:00:00 17,6 4,9 20,5 27 14 42 23 WNW 1013,8 48 0,0
27.10.2020 13:00:00 16,8 4,5 18,9 26 14 40 22 NW 1014,5 44 0,0
27.10.2020 12:00:00 16,4 5,9 18,8 26 14 42 23 NW 1015,0 20 0,0
27.10.2020 11:00:00 15,5 6,5 17,0 26 14 38 21 WNW 1015,0 20 0,0
27.10.2020 10:00:00 13,4 6,7 13,7 20 11 27 14 NW 1014,8 20 0,0
27.10.2020 09:00:00 10,7 6,4 10,4 13 7 20 11 NW 1014,8 60 0,0
27.10.2020 08:00:00 8,6 5,5 5,9 15 8 23 12 NW 1014,1 60 0,0
27.10.2020 07:00:00 7,2 4,8 5,9 14 7 25 13 NW 1013,4 60 0,0
27.10.2020 06:00:00 7,1 5,1 5,6 18 10 22 12 NW 1013,1 60 0,0
27.10.2020 05:00:00 7,4 5,5 6,0 15 8 18 10 WNW 1012,7 60 0,0
27.10.2020 04:00:00 7,8 5,4 6,7 13 7 27 14 NW 1012,3 60 0,0
27.10.2020 03:00:00 8,4 5,7 6,5 21 11 27 15 WNW 1012,2 60 0,0
27.10.2020 02:00:00 7,9 5,2 7,1 16 9 26 14 WNW 1012,5 60 0,0
27.10.2020 01:00:00 8,7 5,3 6,2 19 11 26 14 WNW 1012,5 60 0,0
27.10.2020 00:00:00 8,1 5,4 6,3 10 5 22 12 NW 1012,7 60 0,0
26.10.2020 23:00:00 9,1 5,8 7,5 18 10 22 12 WNW 1012,5 60 0,0
26.10.2020 22:00:00 9,8 5,8 8,9 18 10 32 17 WNW 1012,1 60 0,0
26.10.2020 21:00:00 10,1 6,1 8,9 18 10 29 15 W 1011,3 60 0,0
26.10.2020 20:00:00 11,0 7,7 8,9 19 10 25 14 WNW 1010,8 60 0,0
26.10.2020 19:00:00 11,0 7,7 9,5 13 7 20 11 NW 1010,1 60 0,0
26.10.2020 18:00:00 12,7 8,0 11,1 12 6 29 16 NW 1008,8 60 0,0
26.10.2020 17:00:00 15,3 7,8 14,3 18 10 30 16 NNW 1007,9 60 0,0
26.10.2020 16:00:00 16,7 7,1 19,0 24 13 41 22 N 1007,8 39 0,0
26.10.2020 15:00:00 17,1 7,7 20,1 29 15 48 26 NW 1007,7 23 0,0
26.10.2020 14:00:00 16,6 7,0 19,1 31 17 46 25 NW 1007,9 34 0,0
26.10.2020 13:00:00 15,7 7,7 15,7 31 17 48 26 NW 1008,2 41 0,0
26.10.2020 12:00:00 13,5 8,3 13,9 24 13 37 20 NW 1009,3 51 0,0
26.10.2020 11:00:00 12,0 7,9 11,9 26 14 37 20 NNW 1008,5 60 0,0
26.10.2020 10:00:00 11,4 7,9 11,0 24 13 40 22 NNW 1008,5 60 0,0
26.10.2020 09:00:00 11,6 9,2 11,2 29 16 44 24 NNW 1008,2 60 0,0
26.10.2020 08:00:00 11,7 10,1 11,2 16 9 26 14 WNW 1007,0 60 0,0
26.10.2020 07:00:00 12,1 10,7 11,8 18 10 26 14 WNW 1007,0 60 0,0
26.10.2020 06:00:00 13,0 10,7 12,3 6 4 22 12 N 1006,4 60 0,0
26.10.2020 05:00:00 13,4 10,6 12,3 16 8 35 19 N 1006,5 20 0,4
26.10.2020 04:00:00 14,9 12,4 14,8 24 13 37 20 W 1007,0 40 0,0
26.10.2020 03:00:00 15,6 13,3 15,4 22 12 49 26 WSW 1006,9 40 0,0
26.10.2020 02:00:00 17,5 14,4 16,6 37 20 56 31 S 1006,0 17 0,0
26.10.2020 01:00:00 18,2 14,5 17,7 35 19 63 34 SSE 1006,3 18 0,0
26.10.2020 00:00:00 18,2 13,5 17,7 30 16 59 32 SSE 1007,0 20 0,0
25.10.2020 23:00:00 17,9 13,8 17,2 35 19 54 29 SSE 1007,3 48 0,0
25.10.2020 22:00:00 17,7 14,0 17,3 31 17 59 32 SSE 1007,8 20 0,0
25.10.2020 21:00:00 17,7 13,6 16,9 32 17 50 27 SSE 1007,6 20 0,0
25.10.2020 20:00:00 17,3 13,4 16,9 26 14 43 23 SSE 1008,1 20 0,0
25.10.2020 19:00:00 17,3 13,0 16,5 20 11 35 19 SE 1008,6 20 0,0
25.10.2020 18:00:00 17,0 12,5 16,6 23 13 36 20 SSE 1008,7 43 0,0
25.10.2020 17:00:00 17,5 12,4 17,4 26 14 40 22 SSE 1009,1 20 0,0
25.10.2020 16:00:00 18,2 12,2 18,5 34 18 47 26 SSE 1009,3 20 0,0
25.10.2020 15:00:00 18,6 12,1 19,1 26 14 49 26 SSE 1009,8 20 0,0
25.10.2020 14:00:00 19,0 13,0 19,9 30 16 50 27 SSE 1010,3 41 0,0
25.10.2020 13:00:00 20,2 12,9 20,9 35 19 58 32 SSE 1011,1 19 0,0
25.10.2020 12:00:00 19,6 13,8 19,9 36 20 57 31 SSE 1011,9 20 0,0
25.10.2020 11:00:00 19,2 13,6 19,5 40 21 61 33 SSE 1012,2 20 0,0
25.10.2020 10:00:00 19,0 14,3 16,2 30 16 51 28 SSE 1012,2 20 0,0
25.10.2020 09:00:00 15,8 12,2 14,6 18 10 34 19 E 1012,8 60 0,0
25.10.2020 08:00:00 14,8 11,2 12,7 25 13 40 21 E 1012,5 60 0,0
25.10.2020 07:00:00 13,4 9,4 12,0 26 14 39 21 E 1013,1 60 0,0
25.10.2020 06:00:00 13,0 9,6 12,1 18 10 27 15 E 1013,9 60 0,0
25.10.2020 05:00:00 12,3 10,4 11,2 16 8 27 15 E 1014,2 31 0,2
25.10.2020 04:00:00 12,5 10,6 10,9 17 9 26 14 E 1014,7 29 0,0
25.10.2020 03:00:00 12,0 10,4 11,1 14 8 22 12 E 1015,4 28 0,0
25.10.2020 02:00:00 11,9 10,5 11,1 14 7 19 10 E 1016,2 32 0,0
25.10.2020 01:00:00 - - - - - - - - - - -
25.10.2020 00:00:00 11,9 10,8 10,6 13 7 18 10 E 1017,3 34 0,0
24.10.2020 23:00:00 11,7 10,6 9,7 10 5 13 7 E 1017,7 29 0,0
24.10.2020 22:00:00 11,7 10,3 9,4 6 3 8 4 E 1017,9 42 0,0
24.10.2020 21:00:00 12,2 10,8 9,7 6 3 11 6 E 1018,0 59 0,0
24.10.2020 20:00:00 12,6 10,8 10,2 6 3 18 10 NW 1017,8 59 0,0
24.10.2020 19:00:00 14,1 11,6 13,0 12 6 22 12 W 1017,9 60 0,0
24.10.2020 18:00:00 15,5 10,9 14,7 17 9 22 12 W 1017,9 57 0,0
24.10.2020 17:00:00 17,7 10,1 17,4 16 9 29 16 W 1017,7 20 0,0
24.10.2020 16:00:00 19,8 9,7 20,8 19 10 36 20 WNW 1017,7 60 0,0
24.10.2020 15:00:00 20,3 10,1 22,8 26 14 36 20 NW 1017,9 28 0,0
24.10.2020 14:00:00 20,4 10,2 23,4 27 15 40 22 WNW 1018,3 13 0,0
24.10.2020 13:00:00 20,5 10,6 23,2 25 14 42 23 NNW 1018,9 20 0,0
24.10.2020 12:00:00 19,5 9,9 22,5 26 14 41 22 NNW 1019,6 48 0,0
24.10.2020 11:00:00 18,6 10,7 20,6 22 12 29 16 NNW 1019,7 54 0,0
24.10.2020 10:00:00 16,1 11,0 17,2 16 9 27 14 WNW 1020,2 59 0,0
24.10.2020 09:00:00 13,6 10,9 12,9 15 8 26 14 NW 1020,2 50 0,0
24.10.2020 08:00:00 11,2 10,1 9,8 14 8 20 11 WNW 1019,9 41 0,0
24.10.2020 07:00:00 10,6 9,8 9,5 11 6 15 8 WNW 1019,4 58 0,0
24.10.2020 06:00:00 10,9 10,1 10,1 11 6 24 13 W 1019,5 60 0,2
24.10.2020 05:00:00 11,5 10,9 10,7 11 6 20 11 WNW 1019,4 15 0,0
24.10.2020 04:00:00 12,3 11,7 11,5 10 5 19 10 WNW 1019,4 15 0,0
24.10.2020 03:00:00 13,0 12,4 12,4 11 6 17 9 W 1019,8 13 0,0
24.10.2020 02:00:00 12,8 12,0 11,9 8 4 11 6 WNW 1019,7 7 0,0
24.10.2020 01:00:00 13,8 13,0 13,2 11 6 22 12 N 1019,5 14 0,0
24.10.2020 00:00:00 14,7 14,1 13,7 10 6 15 8 NNW 1019,3 1,1 0,0
23.10.2020 23:00:00 15,3 14,5 14,6 11 6 18 10 W 1019,1 6 0,2
23.10.2020 22:00:00 16,3 15,5 15,8 9 5 29 16 NW 1018,9 8 0,2
23.10.2020 21:00:00 16,5 15,7 14,8 18 10 26 14 WSW 1018,6 6 0,6
23.10.2020 20:00:00 16,7 15,6 14,9 4 2 16 9 NNW 1018,0 8 0,0
23.10.2020 19:00:00 17,6 15,9 17,5 16 8 28 15 W 1017,7 13 0,0
23.10.2020 18:00:00 18,4 16,2 17,9 20 11 33 18 S 1016,9 19 0,0
23.10.2020 17:00:00 19,2 15,9 19,1 24 13 35 19 S 1016,4 36 0,0
23.10.2020 16:00:00 19,7 16,5 19,7 27 14 39 21 SSE 1016,2 19 0,0
23.10.2020 15:00:00 19,8 16,6 20,2 26 14 41 22 SSE 1016,1 20 0,0
23.10.2020 14:00:00 20,2 17,0 19,9 27 15 40 22 SSE 1016,1 17 0,0
23.10.2020 13:00:00 19,8 17,0 20,2 23 13 39 21 SSE 1016,7 18 0,0
23.10.2020 12:00:00 19,7 17,3 19,6 27 14 40 21 SSE 1016,9 16 0,0
23.10.2020 11:00:00 19,1 17,1 18,5 25 14 39 21 SSE 1017,0 18 0,0
23.10.2020 10:00:00 18,8 16,9 18,3 28 15 45 24 SE 1017,0 17 0,0
23.10.2020 09:00:00 18,6 16,7 17,4 29 16 43 23 SE 1016,9 19 2,0
23.10.2020 08:00:00 18,6 16,6 17,3 33 18 49 26 SE 1016,1 16 0,6
23.10.2020 07:00:00 18,8 16,0 16,8 29 15 51 27 SE 1015,9 19 0,0
23.10.2020 06:00:00 18,6 15,5 16,6 28 15 46 25 SE 1015,4 19 0,2
23.10.2020 05:00:00 19,5 14,3 17,1 29 16 53 28 SE 1015,5 54 0,2
23.10.2020 04:00:00 19,8 13,9 16,5 36 19 59 32 SE 1015,3 56 0,0
23.10.2020 03:00:00 18,6 13,7 16,3 21 11 58 31 ESE 1016,2 59 0,0
23.10.2020 02:00:00 19,8 13,7 16,0 28 15 49 27 SE 1017,0 34 0,2
23.10.2020 01:00:00 18,3 13,6 17,2 11 6 31 17 ESE 1017,2 44 0,0
23.10.2020 00:00:00 18,4 14,1 17,0 21 12 37 20 E 1016,8 40 0,0
22.10.2020 23:00:00 18,3 14,0 16,6 22 12 32 17 E 1017,5 42 0,0
22.10.2020 22:00:00 18,1 14,0 16,0 11 6 23 13 E 1018,2 42 0,0
22.10.2020 21:00:00 19,1 12,8 17,9 15 8 29 16 E 1017,8 43 0,0
22.10.2020 20:00:00 20,3 12,0 19,7 21 11 42 23 ESE 1018,0 60 0,0
22.10.2020 19:00:00 20,7 11,9 19,6 26 14 44 24 ESE 1017,5 60 0,0
22.10.2020 18:00:00 21,0 11,6 20,5 26 14 41 22 SE 1017,0 60 0,0
22.10.2020 17:00:00 21,5 10,9 21,0 26 14 37 20 SE 1017,2 60 0,0
22.10.2020 16:00:00 21,7 10,5 21,4 26 14 42 23 SE 1017,6 60 0,0
22.10.2020 15:00:00 21,5 11,8 21,3 16 9 40 22 SE 1018,2 60 0,0
22.10.2020 14:00:00 21,4 13,1 20,7 26 14 44 24 SE 1018,4 54 0,0
22.10.2020 13:00:00 20,5 13,7 19,5 22 12 40 22 SE 1019,2 51 0,0
22.10.2020 12:00:00 19,7 13,8 18,5 19 10 27 14 ESE 1019,8 52 0,0
22.10.2020 11:00:00 18,7 15,2 17,3 14 8 26 14 E 1019,6 17 0,0
22.10.2020 10:00:00 18,4 14,7 17,6 18 10 29 16 E 1019,8 19 0,0
22.10.2020 09:00:00 18,1 14,6 17,7 16 9 35 19 E 1019,5 49 0,0
22.10.2020 08:00:00 19,0 14,0 18,2 19 10 35 19 ESE 1019,1 51 0,0
22.10.2020 07:00:00 19,0 13,8 18,0 23 13 38 20 ESE 1018,3 36 0,0
22.10.2020 06:00:00 19,2 13,1 18,9 28 15 49 26 ESE 1018,2 60 0,0
22.10.2020 05:00:00 19,6 12,8 18,5 27 15 45 24 SE 1017,9 60 0,0
22.10.2020 04:00:00 18,8 12,5 18,4 21 12 42 23 ESE 1017,4 60 0,0
22.10.2020 03:00:00 18,8 12,1 18,4 23 12 39 21 ESE 1017,9 60 0,0
22.10.2020 02:00:00 18,8 11,8 18,0 24 13 40 22 E 1018,2 60 0,0
22.10.2020 01:00:00 18,4 11,7 17,0 22 12 35 19 ESE 1017,9 60 0,0
22.10.2020 00:00:00 17,8 12,0 17,1 25 14 40 22 ESE 1017,4 60 0,0
21.10.2020 23:00:00 18,3 11,8 17,1 24 13 38 20 ESE 1017,7 60 0,0
21.10.2020 22:00:00 17,9 11,9 16,9 26 14 41 22 ESE 1017,6 60 0,0
21.10.2020 21:00:00 17,7 11,5 16,9 15 8 48 26 E 1017,5 60 0,0
21.10.2020 20:00:00 18,4 11,2 17,4 22 12 36 20 ESE 1017,5 60 0,0
21.10.2020 19:00:00 19,4 10,1 18,8 28 15 50 27 ESE 1016,9 60 0,0
21.10.2020 18:00:00 19,9 9,7 19,1 31 17 50 27 ESE 1016,1 60 0,0

tt = Température de l'air
td = dewpoint
tt 5cm = Température de l'air 5cm
ff = Vitesse du vent
fx = gusts
dd = Direction du vent
ppp = reduced air pressure
vv = visibility
rr = Quantités de précipitations

stations d'obs. à proximité